Location: Mahrad Bouko�ti
(16.3887°N, 9.1907°W)
Time: 01:49:29
(UTC+00:00)

Daily predictions for brighter satellites

Satellite Brightness Start Highest point End
(mag) Time Altitude Azimuth Time Altitude Azimuth Time Altitude Azimuth
ATLAS 3B CENTAUR R/B 4.2 03:27:04 32° NW 03:30:28 38° NNW 03:36:31 10° ENE
Atlas Centaur 2 2.8 03:49:49 78° NNE 03:49:49 78° NNE 03:57:37 10° ENE
SL-16 R/B 3.8 03:52:01 10° NNW 03:54:15 25° NNW 03:54:15 25° NNW
Cosmos 2263 Rocket 3.8 04:05:37 23° NNW 04:05:37 23° NNW 04:07:57 10° N
Cosmos 1553 Rocket 4.0 04:04:51 65° SE 04:05:30 71° E 04:11:31 10° N
Delta 7925 Rocket 4.0 04:05:31 75° SSE 04:05:31 75° SSE 04:11:30 10° ENE
IDEFIX/ARIANE 42P 4.3 04:00:43 10° N 04:02:43 22° NNW 04:02:43 22° NNW
CZ-3A R/B 3.7 04:07:21 50° NW 04:08:58 63° N 04:44:39 10° ENE
CZ-3A R/B 3.7 04:07:21 50° NW 04:08:59 63° N 04:44:39 10° ENE
ATLAS 2A CENTAUR R/B 3.6 04:13:30 28° NNE 04:13:30 28° NNE 04:15:12 10° ENE
Cosmos 1606 Rocket 4.3 04:15:01 52° ENE 04:15:01 52° ENE 04:18:58 10° NNE
Aureole 3 4.3 04:15:02 51° E 04:15:02 51° E 04:19:58 10° NNE
Cosmos 1125 Rocket 3.4 04:18:57 80° NNE 04:18:57 80° NNE 04:23:52 10° NNE
Cosmos 1607 4.0 04:12:31 10° NNW 04:18:59 80° ENE 04:25:23 10° SSE
Meteor 2-8 Rocket 4.3 04:23:58 58° SSW 04:25:18 83° W 04:31:26 10° N
Cosmos 1602 Rocket 4.3 04:22:53 10° N 04:25:51 43° N 04:25:51 43° N
Cosmos 1844 Rocket 3.1 04:27:13 33° SSE 04:29:33 57° ESE 04:35:00 10° NNE
NOSS 2-2 (C) 4.1 04:31:45 43° ESE 04:31:55 43° ESE 04:35:22 10° NE
S3M 4.0 04:29:03 31° S 04:32:19 86° E 04:38:42 10° N
CZ-2C R/B 2.1 04:27:45 10° N 04:32:21 85° WNW 04:32:35 80° SW
Cosmos 1726 Rocket 3.7 04:32:00 63° SSE 04:32:34 73° E 04:36:59 10° N
Cosmos 1244 Rocket 4.4 04:29:08 10° N 04:35:28 87° W 04:41:44 10° S
Ariane H10+ 4.1 04:32:34 33° SW 04:37:43 43° S 04:43:56 10° ESE
Meteor 2-21 Rocket 4.3 04:34:57 10° N 04:40:59 72° W 04:46:01 15° S
Cosmos 1484 Rocket 4.4 04:38:12 10° NE 04:41:30 30° E 04:44:17 13° SSE
Hubble Space Telescope 0.6 04:43:41 81° WNW 04:43:50 84° NNW 04:47:58 10° ENE
ERBS 4.0 04:40:57 10° N 04:43:57 33° ENE 04:46:57 10° ESE
Meteor 2-16 Rocket 4.3 04:38:14 10° N 04:44:24 84° W 04:50:32 10° S
Landsat 5 3.6 04:53:27 46° WNW 04:53:27 46° WNW 04:56:35 10° NNW
SL-08 R/B 4.4 04:47:44 10° N 04:53:59 89° W 05:00:17 10° S
ALOS 3.2 04:50:19 10° NNE 04:54:48 48° E 04:59:17 10° S
Cosmos 2058 Rocket 3.0 04:54:47 21° S 04:57:48 90° E 05:02:17 10° N
Cosmos 1356 Rocket 3.7 05:00:26 41° WSW 05:01:11 47° W 05:05:16 10° N
ATLAS CENTAUR R/B 3.1 05:02:35 18° NW 05:02:35 18° NW 05:05:07 10° NNW
ERS-2 2.4 05:02:32 42° W 05:02:32 42° W 05:05:39 10° NNW
CZ-4B R/B 4.0 04:58:54 10° NNE 05:02:29 62° E 05:05:39 13° S
Cosmos 1943 3.7 04:58:54 10° N 05:04:26 61° ENE 05:09:58 10° SSE
Cosmos 2315 Rocket 4.2 04:58:34 10° S 05:04:48 75° E 05:11:05 10° N
deb Chang Zheng 4 4.1 05:01:32 10° N 05:05:33 38° WNW 05:06:32 33° WSW
Cosmos 2228 4.1 05:06:15 26° WNW 05:06:15 26° WNW 05:09:31 10° NNW
ASTRO F (AKARI) 4.1 05:05:35 10° N 05:08:37 66° WNW 05:09:33 40° SW
GPS 2-18 Rocket1 4.0 05:11:46 20° WNW 05:13:54 39° N 05:17:21 10° ENE
Cosmos 1758 Rocket 3.9 05:14:00 10° NNW 05:18:03 41° W 05:22:07 10° SSW
H-2A R/B 3.3 05:19:27 21° W 05:19:27 21° W 05:22:03 10° NW
Meteor 1-11 4.2 05:15:57 10° N 05:21:40 83° W 05:27:18 10° S
SL-4 R/B 4.3 05:19:17 10° N 05:22:04 22° NE 05:24:56 10° ESE
GPS 2-15 Rocket1 3.2 05:20:46 16° WNW 05:24:43 89° S 05:29:41 10° ESE
Cosmos 1844 4.0 05:20:51 15° SW 05:25:27 48° WNW 05:31:02 10° N
SL-23 DEB 3.4 05:22:02 10° NW 05:25:32 79° NE 05:28:40 10° SE
CZ-3B R/B 3.6 05:09:35 10° WNW 05:25:41 51° SW 05:30:44 10° SE
CZ-4B R/B 1.3 05:24:22 10° S 05:27:44 66° W 05:31:03 10° NNW
Meteosat 1 Rocket2 3.2 05:24:55 19° WSW 05:28:24 62° NNW 05:32:13 10° ENE
Cosmos 724 4.3 05:22:30 10° NNW 05:28:36 80° WSW 05:34:46 10° SSE
H-2A R/B 3.9 05:25:26 10° NE 05:28:55 34° E 05:32:25 10° SSE
CZ-4B R/B 3.0 05:28:16 10° N 05:32:45 81° WNW 05:37:05 10° SSW
ARIANE 44LP R/B 3.7 05:36:32 10° SSW 05:37:04 11° S 05:37:37 10° SSE
ATLAS 2A CENTAUR R/B 2.0 05:35:24 10° WNW 05:38:17 72° NNE 05:48:07 10° ESE
Atlas Centaur 2 3.9 05:32:36 10° W 05:39:46 39° NNW 05:47:38 10° NE
Cosmos 468 4.5 05:34:47 10° NNW 05:40:02 75° WSW 05:45:19 10° S
Cosmos 1825 Rocket 4.4 05:36:55 10° NW 05:40:32 27° W 05:44:10 10° SSW
FENGYUN 3A 4.0 05:35:51 10° N 05:40:57 46° WNW 05:46:03 10° SSW
USA 267 3.4 05:36:51 10° SE 05:43:23 83° NE 05:49:55 10° NW
SAR-Lupe-4 4.1 05:40:43 10° SSW 05:43:59 35° W 05:47:16 10° NNW
Meteor 2-10 Rocket 3.7 05:39:47 10° S 05:44:46 75° E 05:49:52 10° N
Cosmos 1953 Rocket 4.1 05:42:36 10° NNW 05:46:45 38° W 05:50:52 10° SSW
Okean O Rocket 4.4 05:45:12 10° NE 05:48:32 21° E 05:51:52 10° SSE
Cosmos 2278 Rocket 3.1 05:45:50 10° S 05:51:19 53° ESE 05:56:48 10° NNE
Cosmos 1455 2.2 05:49:35 10° S 05:53:24 88° E 05:57:15 10° N
ATLAS 3B CENTAUR R/B 2.9 05:48:02 10° WNW 05:53:49 35° N 05:56:50 10° ENE
Meteor PRIRODA 4.1 05:52:40 10° N 05:56:11 41° WNW 05:59:43 10° SSW
COSMO-SKYMED 1 3.5 05:54:21 10° SSE 05:58:34 55° ENE 06:02:48 10° N
Delta 7925 Rocket 4.5 05:54:57 10° W 06:01:03 43° NNW 06:05:59 10° NE
